Custer, SD

9:06 PM MDT on September 25, 2017 (GMT -0600)
Custer County

Weather History for KCUT - February, 2012

Change the Weather History Date:

Thursday, February 16, 2012

  Actual Average Record
Temperature  
Mean Temperature 23 °F 26 °F  
Max Temperature 35 °F 36 °F 60 °F (2017)
Min Temperature 11 °F 15 °F -20 °F (1993)
Degree Days  
Heating Degree Days 42 39  
Month to date heating degree days 671 643  
Since 1 July heating degree days 5074 5378  
Cooling Degree Days 0 0  
Month to date cooling degree days 0 0  
Year to date cooling degree days 0 0  
Moisture  
Dew Point 8 °F    
Average Humidity 56    
Maximum Humidity 76    
Minimum Humidity 35    
Precipitation  
Precipitation 0.00 in 0.02 in 0.52 in (1991)
Month to date precipitation T 0.31  
Year to date precipitation 0.20 0.64  
Sea Level Pressure  
Sea Level Pressure 30.14 in    
Wind  
Wind Speed 7 mph (West)    
Max Wind Speed 20 mph    
Max Gust Speed 25 mph    
Visibility 10 miles    
Events      
T = Trace of Precipitation, MM = Missing Value Source: NWS Daily Summary

Daily Weather History Graph

Daily Weather History Graph

Search for Another Location

Airport or City:

Trip Planner

Search our weather history database for the weather conditions in past years. The results will help you decide how hot, cold, wet, or windy it might be!

Date:

Astronomy

Feb. 16, 2012 Rise Set
Actual Time 6:52 AM MST 5:25 PM MST
Civil Twilight 6:22 AM MST 5:54 PM MST
Nautical Twilight 5:49 AM MST 6:28 PM MST
Astronomical Twilight 5:16 AM MST 7:01 PM MST
Moon 2:57 AM MST (2/16) 12:12 PM MST (2/16)
Length of Visible Light 11h 31m
Length of Day
10h 33m
Waning Crescent, 28% of the Moon is Illuminated
Feb 16
Waning Crescent
Feb 21
New
Feb 29
First Quarter
Mar 8
Full
Mar 14
Last Quarter

Hourly Weather History & Observations

Time (MST) Temp. Windchill Dew Point Humidity Pressure Visibility Wind Dir Wind Speed Gust Speed Precip Events Conditions
12:53 AM 15.1 °F 6.4 °F 5.0 °F 64% 30.20 in 10.0 mi WSW 5.8 mph - N/A   Clear
1:53 AM 17.1 °F 10.0 °F 5.0 °F 59% 30.19 in 10.0 mi West 4.6 mph - N/A   Clear
2:53 AM 15.1 °F 7.7 °F 5.0 °F 64% 30.18 in 10.0 mi SW 4.6 mph - N/A   Clear
3:53 AM 12.0 °F 4.1 °F 6.1 °F 77% 30.20 in 10.0 mi WSW 4.6 mph - N/A   Scattered Clouds
4:53 AM 12.0 °F 4.1 °F 6.1 °F 77% 30.21 in 10.0 mi SSW 4.6 mph - N/A   Clear
5:53 AM 14.0 °F - 7.0 °F 74% 30.20 in 10.0 mi Calm Calm - N/A   Clear
6:53 AM 14.0 °F 8.2 °F 7.0 °F 74% 30.22 in 10.0 mi West 3.5 mph - N/A   Clear
7:53 AM 19.9 °F 10.1 °F 10.0 °F 65% 30.21 in 10.0 mi West 8.1 mph - N/A   Clear
8:53 AM 26.1 °F 16.2 °F 12.0 °F 55% 30.18 in 10.0 mi West 10.4 mph - N/A   Clear
9:53 AM 28.0 °F 17.5 °F 12.0 °F 51% 30.19 in 10.0 mi West 12.7 mph 21.9 mph N/A   Clear
10:53 AM 30.0 °F 19.1 °F 10.0 °F 43% 30.16 in 10.0 mi WNW 15.0 mph 19.6 mph N/A   Clear
11:53 AM 32.0 °F 22.1 °F 8.1 °F 37% 30.13 in 10.0 mi WNW 13.8 mph 23.0 mph N/A   Clear
12:53 PM 33.1 °F 21.9 °F 9.0 °F 37% 30.11 in 10.0 mi West 18.4 mph 24.2 mph N/A   Clear
1:53 PM 33.1 °F 23.9 °F 10.9 °F 40% 30.08 in 10.0 mi West 12.7 mph 21.9 mph N/A   Clear
2:53 PM 34.0 °F 25.5 °F 9.0 °F 35% 30.08 in 10.0 mi WNW 11.5 mph 20.7 mph N/A   Clear
3:53 PM 34.0 °F 25.0 °F 12.0 °F 40% 30.09 in 10.0 mi West 12.7 mph 19.6 mph N/A   Clear
4:53 PM 32.0 °F 24.2 °F 10.9 °F 42% 30.10 in 10.0 mi West 9.2 mph - N/A   Clear
5:53 PM 28.0 °F 24.2 °F 9.0 °F 45% 30.11 in 10.0 mi SW 3.5 mph - N/A   Clear
6:53 PM 27.0 °F - 9.0 °F 47% 30.10 in 10.0 mi Calm Calm - N/A   Clear
7:53 PM 27.0 °F 23.0 °F 9.0 °F 47% 30.08 in 10.0 mi NW 3.5 mph - N/A   Clear
8:53 PM 25.0 °F - 8.1 °F 49% 30.07 in 10.0 mi Calm Calm - N/A   Clear
9:53 PM 25.0 °F 20.7 °F 6.1 °F 45% 30.06 in 10.0 mi WSW 3.5 mph - N/A   Clear
10:53 PM 21.0 °F 16.2 °F 6.1 °F 53% 30.06 in 10.0 mi SW 3.5 mph - N/A   Clear
11:53 PM 24.1 °F - 6.1 °F 46% 30.04 in 10.0 mi Calm Calm - N/A   Partly Cloudy